Time,TemperatureF,DewpointF,PressureIn,WindDirection,WindDirectionDegrees,WindSpeedMPH,WindSpeedGustMPH,Humidity,HourlyPrecipIn,Conditions,Clouds,dailyrainin,SoftwareType,DateUTC
2013-11-30 00:09:00,36.6,27.0,29.94,South,179,6.0,13.0,68,0.00,,,0.00,weatherlink.com 1.10,2013-11-30 06:09:00,
2013-11-30 00:25:00,36.7,27.0,29.93,South,176,7.0,15.0,67,0.00,,,0.00,weatherlink.com 1.10,2013-11-30 06:25:00,
2013-11-30 00:40:00,36.7,27.0,29.93,SSE,158,7.0,13.0,67,0.00,,,0.00,weatherlink.com 1.10,2013-11-30 06:40:00,
2013-11-30 00:55:00,36.3,26.0,29.92,South,176,6.0,11.0,67,0.00,,,0.00,weatherlink.com 1.10,2013-11-30 06:55:00,
2013-11-30 01:10:00,35.9,26.0,29.91,SE,129,5.0,11.0,68,0.00,,,0.00,weatherlink.com 1.10,2013-11-30 07:10:00,
2013-11-30 01:25:00,35.8,26.0,29.91,SSE,159,7.0,14.0,68,0.00,,,0.00,weatherlink.com 1.10,2013-11-30 07:25:00,
2013-11-30 01:40:00,35.5,26.0,29.91,SSE,159,5.0,9.0,68,0.00,,,0.00,weatherlink.com 1.10,2013-11-30 07:40:00,
2013-11-30 01:55:00,35.1,25.0,29.91,SSW,208,3.0,8.0,68,0.00,,,0.00,weatherlink.com 1.10,2013-11-30 07:55:00,
2013-11-30 02:10:00,33.9,25.0,29.91,SW,228,1.0,2.0,70,0.00,,,0.00,weatherlink.com 1.10,2013-11-30 08:10:00,
2013-11-30 02:25:00,33.1,25.0,29.91,SSE,162,1.0,2.0,72,0.00,,,0.00,weatherlink.com 1.10,2013-11-30 08:25:00,
2013-11-30 02:40:00,32.3,24.0,29.91,SSE,158,1.0,4.0,72,0.00,,,0.00,weatherlink.com 1.10,2013-11-30 08:40:00,
2013-11-30 02:55:00,31.7,24.0,29.91,SSE,155,0.0,2.0,73,0.00,,,0.00,weatherlink.com 1.10,2013-11-30 08:55:00,
2013-11-30 03:10:00,30.9,24.0,29.91,SSE,147,0.0,1.0,75,0.00,,,0.00,weatherlink.com 1.10,2013-11-30 09:10:00,
2013-11-30 03:25:00,30.5,24.0,29.91,SSE,152,0.0,1.0,76,0.00,,,0.00,weatherlink.com 1.10,2013-11-30 09:25:00,
2013-11-30 03:40:00,29.8,23.0,29.91,SSE,153,0.0,1.0,75,0.00,,,0.00,weatherlink.com 1.10,2013-11-30 09:40:00,
2013-11-30 03:55:00,29.6,24.0,29.91,SSE,160,0.0,1.0,79,0.00,,,0.00,weatherlink.com 1.10,2013-11-30 09:55:00,
2013-11-30 04:10:00,28.6,23.0,29.90,SSE,160,0.0,0.0,79,0.00,,,0.00,weatherlink.com 1.10,2013-11-30 10:10:00,
2013-11-30 04:25:00,28.4,22.0,29.90,SSE,153,0.0,1.0,78,0.00,,,0.00,weatherlink.com 1.10,2013-11-30 10:25:00,
2013-11-30 04:40:00,28.1,23.0,29.90,SE,144,0.0,1.0,80,0.00,,,0.00,weatherlink.com 1.10,2013-11-30 10:40:00,
2013-11-30 04:55:00,28.2,23.0,29.90,SE,143,0.0,0.0,81,0.00,,,0.00,weatherlink.com 1.10,2013-11-30 10:55:00,
2013-11-30 05:10:00,28.2,22.0,29.90,SE,144,0.0,1.0,79,0.00,,,0.00,weatherlink.com 1.10,2013-11-30 11:10:00,
2013-11-30 05:25:00,27.3,22.0,29.90,SE,143,0.0,1.0,80,0.00,,,0.00,weatherlink.com 1.10,2013-11-30 11:25:00,
2013-11-30 05:40:00,26.5,21.0,29.90,SE,144,0.0,1.0,81,0.00,,,0.00,weatherlink.com 1.10,2013-11-30 11:40:00,
2013-11-30 05:55:00,26.1,22.0,29.90,SE,144,0.0,1.0,83,0.00,,,0.00,weatherlink.com 1.10,2013-11-30 11:55:00,
2013-11-30 06:10:00,26.2,22.0,29.90,SE,143,0.0,0.0,84,0.00,,,0.00,weatherlink.com 1.10,2013-11-30 12:10:00,
2013-11-30 06:25:00,25.0,21.0,29.90,SE,143,0.0,1.0,83,0.00,,,0.00,weatherlink.com 1.10,2013-11-30 12:25:00,
2013-11-30 06:40:00,24.8,21.0,29.90,SE,143,0.0,1.0,85,0.00,,,0.00,weatherlink.com 1.10,2013-11-30 12:40:00,
2013-11-30 06:55:00,25.3,21.0,29.90,SE,144,0.0,1.0,85,0.00,,,0.00,weatherlink.com 1.10,2013-11-30 12:55:00,
2013-11-30 07:10:00,24.7,21.0,29.90,SE,140,0.0,1.0,85,0.00,,,0.00,weatherlink.com 1.10,2013-11-30 13:10:00,
2013-11-30 07:26:00,24.8,21.0,29.90,SE,134,1.0,2.0,85,0.00,,,0.00,weatherlink.com 1.10,2013-11-30 13:26:00,
2013-11-30 07:41:00,24.6,21.0,29.90,SE,130,0.0,1.0,85,0.00,,,0.00,weatherlink.com 1.10,2013-11-30 13:41:00,
2013-11-30 07:56:00,25.7,22.0,29.90,SE,140,1.0,1.0,84,0.00,,,0.00,weatherlink.com 1.10,2013-11-30 13:56:00,
2013-11-30 08:11:00,27.6,23.0,29.90,SE,140,0.0,0.0,84,0.00,,,0.00,weatherlink.com 1.10,2013-11-30 14:11:00,
2013-11-30 08:26:00,30.0,25.0,29.90,SSE,153,0.0,0.0,81,0.00,,,0.00,weatherlink.com 1.10,2013-11-30 14:26:00,
2013-11-30 08:41:00,32.3,26.0,29.91,SE,134,1.0,2.0,77,0.00,,,0.00,weatherlink.com 1.10,2013-11-30 14:41:00,
2013-11-30 08:56:00,32.2,26.0,29.91,SE,145,2.0,3.0,78,0.00,,,0.00,weatherlink.com 1.10,2013-11-30 14:56:00,
2013-11-30 09:11:00,34.4,27.0,29.91,SE,141,1.0,3.0,75,0.00,,,0.00,weatherlink.com 1.10,2013-11-30 15:11:00,
2013-11-30 09:26:00,36.7,28.0,29.91,SW,233,1.0,4.0,72,0.00,,,0.00,weatherlink.com 1.10,2013-11-30 15:26:00,
2013-11-30 09:41:00,38.1,28.0,29.91,SSW,207,1.0,4.0,68,0.00,,,0.00,weatherlink.com 1.10,2013-11-30 15:41:00,
2013-11-30 09:56:00,38.9,29.0,29.92,SSW,197,0.0,3.0,68,0.00,,,0.00,weatherlink.com 1.10,2013-11-30 15:56:00,
2013-11-30 10:11:00,39.7,29.0,29.92,West,268,0.0,3.0,67,0.00,,,0.00,weatherlink.com 1.10,2013-11-30 16:11:00,
2013-11-30 10:26:00,40.2,30.0,29.92,WNW,285,0.0,4.0,66,0.00,,,0.00,weatherlink.com 1.10,2013-11-30 16:26:00,
2013-11-30 10:41:00,41.4,30.0,29.92,NE,45,2.0,4.0,64,0.00,,,0.00,weatherlink.com 1.10,2013-11-30 16:41:00,
2013-11-30 10:56:00,41.4,30.0,29.92,WNW,283,3.0,5.0,65,0.00,,,0.00,weatherlink.com 1.10,2013-11-30 16:56:00,
2013-11-30 11:11:00,42.1,31.0,29.91,WNW,285,2.0,8.0,64,0.00,,,0.00,weatherlink.com 1.10,2013-11-30 17:11:00,
2013-11-30 11:26:00,42.6,31.0,29.90,NNW,340,1.0,6.0,64,0.00,,,0.00,weatherlink.com 1.10,2013-11-30 17:26:00,
2013-11-30 11:41:00,44.3,32.0,29.90,WNW,301,1.0,5.0,62,0.00,,,0.00,weatherlink.com 1.10,2013-11-30 17:41:00,
2013-11-30 11:56:00,46.1,32.0,29.89,NW,307,4.0,6.0,59,0.00,,,0.00,weatherlink.com 1.10,2013-11-30 17:56:00,
2013-11-30 12:11:00,46.9,33.0,29.88,NW,309,4.0,6.0,58,0.00,,,0.00,weatherlink.com 1.10,2013-11-30 18:11:00,
2013-11-30 12:26:00,48.2,33.0,29.88,WNW,284,2.0,7.0,56,0.00,,,0.00,weatherlink.com 1.10,2013-11-30 18:26:00,
2013-11-30 12:41:00,49.4,33.0,29.87,West,280,3.0,6.0,54,0.00,,,0.00,weatherlink.com 1.10,2013-11-30 18:41:00,
2013-11-30 12:56:00,50.2,33.0,29.86,West,281,1.0,5.0,53,0.00,,,0.00,weatherlink.com 1.10,2013-11-30 18:56:00,
2013-11-30 13:11:00,50.9,33.0,29.86,WNW,297,4.0,7.0,51,0.00,,,0.00,weatherlink.com 1.10,2013-11-30 19:11:00,
2013-11-30 13:26:00,51.6,33.0,29.86,WNW,293,2.0,6.0,50,0.00,,,0.00,weatherlink.com 1.10,2013-11-30 19:26:00,
2013-11-30 13:41:00,52.4,34.0,29.85,West,273,1.0,4.0,50,0.00,,,0.00,weatherlink.com 1.10,2013-11-30 19:41:00,
2013-11-30 13:57:00,53.2,34.0,29.85,WNW,295,2.0,5.0,48,0.00,,,0.00,weatherlink.com 1.10,2013-11-30 19:57:00,
2013-11-30 14:12:00,53.8,34.0,29.84,NW,305,2.0,5.0,47,0.00,,,0.00,weatherlink.com 1.10,2013-11-30 20:12:00,
2013-11-30 14:27:00,54.3,33.0,29.84,WNW,298,3.0,4.0,45,0.00,,,0.00,weatherlink.com 1.10,2013-11-30 20:27:00,
2013-11-30 14:42:00,55.1,33.0,29.84,NW,305,4.0,5.0,44,0.00,,,0.00,weatherlink.com 1.10,2013-11-30 20:42:00,
2013-11-30 14:57:00,56.0,34.0,29.84,West,270,0.0,2.0,43,0.00,,,0.00,weatherlink.com 1.10,2013-11-30 20:57:00,
2013-11-30 15:12:00,56.1,33.0,29.84,NW,308,2.0,3.0,42,0.00,,,0.00,weatherlink.com 1.10,2013-11-30 21:12:00,
2013-11-30 15:27:00,56.0,33.0,29.84,WNW,300,4.0,4.0,42,0.00,,,0.00,weatherlink.com 1.10,2013-11-30 21:27:00,
2013-11-30 15:42:00,56.3,33.0,29.84,NW,306,4.0,5.0,42,0.00,,,0.00,weatherlink.com 1.10,2013-11-30 21:42:00,
2013-11-30 15:57:00,56.1,33.0,29.85,NW,312,2.0,4.0,42,0.00,,,0.00,weatherlink.com 1.10,2013-11-30 21:57:00,
2013-11-30 16:12:00,55.5,33.0,29.85,NW,321,3.0,6.0,42,0.00,,,0.00,weatherlink.com 1.10,2013-11-30 22:12:00,
2013-11-30 16:27:00,54.7,32.0,29.85,NW,315,2.0,5.0,42,0.00,,,0.00,weatherlink.com 1.10,2013-11-30 22:27:00,
2013-11-30 16:42:00,54.2,33.0,29.85,NNW,338,0.0,2.0,44,0.00,,,0.00,weatherlink.com 1.10,2013-11-30 22:42:00,
2013-11-30 16:57:00,52.0,32.0,29.85,NNW,338,0.0,0.0,46,0.00,,,0.00,weatherlink.com 1.10,2013-11-30 22:57:00,
2013-11-30 17:12:00,50.7,31.0,29.86,NNW,338,0.0,0.0,48,0.00,,,0.00,weatherlink.com 1.10,2013-11-30 23:12:00,
2013-11-30 17:27:00,50.7,31.0,29.86,NNW,347,0.0,2.0,48,0.00,,,0.00,weatherlink.com 1.10,2013-11-30 23:27:00,
2013-11-30 17:42:00,47.1,29.0,29.87,North,352,1.0,1.0,50,0.00,,,0.00,weatherlink.com 1.10,2013-11-30 23:42:00,
2013-11-30 17:57:00,44.3,29.0,29.87,ENE,63,0.0,1.0,56,0.00,,,0.00,weatherlink.com 1.10,2013-11-30 23:57:00,
2013-11-30 18:12:00,43.6,30.0,29.88,ENE,65,0.0,1.0,58,0.00,,,0.00,weatherlink.com 1.10,2013-12-01 00:12:00,
2013-11-30 18:27:00,42.4,29.0,29.88,ENE,65,0.0,1.0,59,0.00,,,0.00,weatherlink.com 1.10,2013-12-01 00:27:00,
2013-11-30 18:42:00,40.8,29.0,29.88,ENE,65,0.0,0.0,62,0.00,,,0.00,weatherlink.com 1.10,2013-12-01 00:42:00,
2013-11-30 18:57:00,38.7,27.0,29.88,ENE,65,0.0,0.0,64,0.00,,,0.00,weatherlink.com 1.10,2013-12-01 00:57:00,
2013-11-30 19:12:00,37.5,27.0,29.89,ENE,65,0.0,0.0,67,0.00,,,0.00,weatherlink.com 1.10,2013-12-01 01:12:00,
2013-11-30 19:27:00,38.0,29.0,29.89,ENE,73,0.0,2.0,70,0.00,,,0.00,weatherlink.com 1.10,2013-12-01 01:27:00,
2013-11-30 19:42:00,38.1,29.0,29.89,WNW,293,2.0,2.0,69,0.00,,,0.00,weatherlink.com 1.10,2013-12-01 01:42:00,
2013-11-30 19:57:00,38.4,29.0,29.89,NW,304,2.0,3.0,68,0.00,,,0.00,weatherlink.com 1.10,2013-12-01 01:57:00,
2013-11-30 20:12:00,37.4,28.0,29.89,West,280,0.0,3.0,69,0.00,,,0.00,weatherlink.com 1.10,2013-12-01 02:12:00,
2013-11-30 20:27:00,37.2,28.0,29.90,West,262,0.0,5.0,70,0.00,,,0.00,weatherlink.com 1.10,2013-12-01 02:27:00,
2013-11-30 20:42:00,34.8,26.0,29.91,SW,222,0.0,1.0,70,0.00,,,0.00,weatherlink.com 1.10,2013-12-01 02:42:00,
2013-11-30 20:57:00,33.0,26.0,29.91,SW,222,0.0,1.0,74,0.00,,,0.00,weatherlink.com 1.10,2013-12-01 02:57:00,
2013-11-30 21:12:00,32.3,26.0,29.91,SW,222,0.0,1.0,77,0.00,,,0.00,weatherlink.com 1.10,2013-12-01 03:12:00,
2013-11-30 21:27:00,33.3,27.0,29.92,WNW,284,1.0,2.0,76,0.00,,,0.00,weatherlink.com 1.10,2013-12-01 03:27:00,
2013-11-30 21:42:00,34.1,26.0,29.92,WNW,283,0.0,3.0,71,0.00,,,0.00,weatherlink.com 1.10,2013-12-01 03:42:00,
2013-11-30 21:58:00,31.7,25.0,29.92,WNW,282,0.0,0.0,75,0.00,,,0.00,weatherlink.com 1.10,2013-12-01 03:58:00,
2013-11-30 22:12:00,30.6,25.0,29.92,WNW,283,1.0,1.0,79,0.00,,,0.00,weatherlink.com 1.10,2013-12-01 04:12:00,
2013-11-30 22:27:00,31.4,24.0,29.93,WNW,283,0.0,0.0,75,0.00,,,0.00,weatherlink.com 1.10,2013-12-01 04:27:00,
2013-11-30 22:42:00,29.9,24.0,29.93,WNW,283,0.0,0.0,79,0.00,,,0.00,weatherlink.com 1.10,2013-12-01 04:42:00,
2013-11-30 22:57:00,31.8,27.0,29.94,WNW,287,2.0,2.0,81,0.00,,,0.00,weatherlink.com 1.10,2013-12-01 04:57:00,
2013-11-30 23:12:00,31.0,25.0,29.93,WNW,287,0.0,0.0,79,0.00,,,0.00,weatherlink.com 1.10,2013-12-01 05:12:00,
2013-11-30 23:27:00,28.8,23.0,29.93,WNW,287,0.0,0.0,80,0.00,,,0.00,weatherlink.com 1.10,2013-12-01 05:27:00,
2013-11-30 23:42:00,28.3,24.0,29.93,WNW,287,0.0,0.0,84,0.00,,,0.00,weatherlink.com 1.10,2013-12-01 05:42:00,
2013-11-30 23:57:00,29.3,25.0,29.93,WNW,286,0.0,0.0,84,0.00,,,0.00,weatherlink.com 1.10,2013-12-01 05:57:00,